Regional Weather Roundup
Issued by NWS Charleston, SC

Current Version | Previous Version | Graphics & Text | Print | Product List | Glossary On
Versions: 1 2 3 4 5 6 7 8 9 10 11 12 13 14 15 16 17 18 19 20 21 22 23 24 25 26 27 28 29 30 31 32 33 34 35 36 37 38 39 40 41 42 43 44 45 46 47 48 49 50
000 ASUS42 KCHS 180127 RWRCHS REGIONAL WEATHER ROUNDUP NATIONAL WEATHER SERVICE CHARLESTON SC 800 PM EST TUE JAN 17 2017 NOTE: "FAIR" INDICATES FEW OR NO CLOUDS BELOW 12,000 FEET WITH NO SIGNIFICANT WEATHER AND/OR OBSTRUCTIONS TO VISIBILITY. NOT ALL STATIONS ARE QUALITY CONTROLLED. USE DATA WITH CAUTION... ESPECIALLY DEWPOINT OBSERVATIONS. SCZ027-030-031-034>040-042>050-180200- ...SOUTHEAST SOUTH CAROLINA... CITY SKY/WX TMP DP RH WIND PRES REMARKS N CHARLESTON MOCLDY 62 58 86 S8 30.19S WATERFRONT PRK N/A 62 61 96 SW5 30.20R MOUNT PLEASANT FAIR 63 61 94 S6 30.19F JOHNS ISLAND FAIR 61 61 100 S6 30.20S PINOPOLIS N/A 66 61 82 VRB3 30.09R MONCKS CORNER FAIR 61 57 88 CALM 30.18S SUMMERVILLE FAIR 64 61 88 S3 30.20R BEAUFORT MCAS CLOUDY 63 59 87 S6 30.20S BEAUFORT ARPT FAIR 61 59 94 S6 30.20S HILTON HEAD IS PTCLDY 61 61 100 S6 30.22S WALTERBORO PTCLDY 64 N/A N/A CALM 30.20R ALLENDALE FAIR 68 57 68 CALM 30.17S ...SOUTHERN MIDLANDS AND PEE DEE... CITY SKY/WX TMP DP RH WIND PRES REMARKS GEORGETOWN FAIR 61 59 94 S6 30.19S KINGSTREE FAIR 59 55 88 CALM 30.17S ORANGEBURG CLOUDY 63 57 81 SW7 30.17R BARNWELL FAIR 68 59 73 CALM 30.18S AIKEN FAIR 61 54 77 S5 30.20S MANNING FAIR 57 55 94 CALM 30.18S COLUMBIA CLOUDY 66 55 67 S5 30.15S SUMTER CLOUDY 61 56 85 S5 30.14R FLORENCE MOCLDY 62 58 86 SW3 30.16S MYRTLE BEACH CLEAR 61 55 82 S9 30.19R N MYRTLE BEACH PTCLDY 58 57 97 SW6 30.17R $$ GAZ063-065-086>088-099>101-113>116-118-119-134>141-150-180200- ...SOUTHEAST GEORGIA... CITY SKY/WX TMP DP RH WIND PRES REMARKS SAVANNAH ARPT PTCLDY 63 58 83 S9 30.21R HUNTER AAF CLEAR 62 61 95 S6 30.19R FORT STEWART CLEAR 61 59 91 CALM 30.18S STATESBORO CLEAR 59 59 100 CALM 30.20S SYLVANIA PTCLDY N/A N/A N/A CALM 30.20R CLAXTON FAIR N/A N/A N/A CALM 30.20S ...CSRA...CENTRAL AND FAR SOUTHEAST GEORGIA... CITY SKY/WX TMP DP RH WIND PRES REMARKS THOMSON PTCLDY 67 59 75 CALM 30.21S AUGUSTA-BUSH CLOUDY 66 56 70 S3 30.17R AUGUSTA-DANIEL CLOUDY 69 54 58 SW3 30.18R SWAINSBORO FAIR 66 57 72 SW3 30.20R VIDALIA CLEAR 64 61 88 CALM 30.20S EASTMAN FAIR 62 52 70 CALM 30.22S HAZLEHURST FAIR 64 62 92 SW6 30.20R ALMA CLEAR 61 59 93 CALM 30.20F WAYCROSS CLEAR 65 64 98 CALM 30.22S JESUP FAIR 61 55 82 CALM 30.21F BAXLEY FAIR 63 63 100 CALM 30.21R BRUNSWICK CLEAR 63 63 100 S5 30.23F SAINT SIMONS CLEAR 63 60 90 S7 30.23R $$ SCZ027-028-034-036>038-045-046-048>050-GAZ119-141-180200- ...LAKE AND SUPPLEMENTAL COASTAL OBSERVATIONS... STATION/POSITION TIME TEMP WIND PRES WAVE SWELL AIR SEA DIR/SP/G HT/PER HT/PER/DIR (UTC) (F) (DEG/KT/KT) (MB) (FT/S) (FT/S/D) WINYAH BAY 0045 59 200/ 4 1022.0R LAKE MURRAY 0020 65 CALM / 3 1020.7R ACE BASIN NERRS 0045 59 CALM 1023.0S FORT PULASKI 0100 60 56 200/ 4/ 7 1023.2 SAPELO ISLAND 0100 61 170/ 5 1023.0 $$ ANZ835-935-AMZ111-154-330-350-352-354-370-450-454-472-180200- ...C-MAN AND BUOY OBSERVATIONS... STATION/POSITION TIME TEMP WIND PRES WAVE SWELL AIR SEA DIR/SP/G HT/PER HT/PER/DIR (UTC) (F) (DEG/KT/KT) (MB) (FT/S) (FT/S/D) BUOY 41004 0050 70 71 220/ 12/ 14 1022.5R 2/ 8 2/130/ 8 BUOY 41008 0050 63 60 160/ 8/ 8 1023.3R 2/ 8 2/ 90/ 8 FOLLY BEACH CMAN 0100 59 200/ 5/ 5 1022.9F CAPERS NEARSHORE 0008 58 54 220/ 8/ 10 1022.6R FRIPP NEARSHORE 0108 60 57 200/ 8/ 12 1022.4F STATION/POSITION TIME TEMP WIND PRES WAVE SWELL AIR SEA DIR/SP/G HT/PER HT/PER/DIR (UTC) (F) (DEG/KT/KT) (MB) (FT/S) (FT/S/D) 5E ST. MARYS GA 0100 62 N/A 2/10 FRYING PAN BUOY 0100 210/ 12/ 16 1022.0 BUOY 41025 0050 70 73 230/ 17/ 21 1019.6F 3/ 4 2/110/ 9 CAPE LOOKOUT NC 0100 64 220/ 11/ 14 1020.3F BUOY 41002 0050 72 72 210/ 12/ 12 1024.1F 3/ 8 2/130/ 8 BUOY 41010 NOT AVBL ST AUGUSTINE FL 0100 67 65 180/ 2/ 3 1025.0R $$

USA.gov is the U.S. government's official web portal to all federal, state and local government web resources and services.